EDT,Max TemperatureF,Mean TemperatureF,Min TemperatureF,Max Dew PointF,MeanDew PointF,Min DewpointF,Max Humidity, Mean Humidity, Min Humidity, Max Sea Level PressureIn, Mean Sea Level PressureIn, Min Sea Level PressureIn, Max VisibilityMiles, Mean VisibilityMiles, Min VisibilityMiles, Max Wind SpeedMPH, Mean Wind SpeedMPH, Max Gust SpeedMPH,PrecipitationIn, CloudCover, Events, WindDirDegrees
2013-6-1,91,76,60,67,62,58,100,67,34,29.98,29.93,29.84,10,5,0,17,4,24,0.00,1,Fog,240
2013-6-2,88,75,62,71,66,62,100,77,53,29.84,29.78,29.68,10,7,1,18,3,30,0.54,4,Rain-Thunderstorm,184
2013-6-3,75,62,49,64,56,46,100,72,44,29.88,29.82,29.79,10,9,6,15,5,21,0.00,3,,244
2013-6-4,68,55,42,46,41,37,89,62,35,30.13,29.98,29.90,10,10,10,17,6,25,0.00,1,,296
2013-6-5,73,58,42,47,41,32,100,62,23,30.22,30.16,30.10,10,10,10,13,3,18,0.00,1,,342
2013-6-6,71,58,45,56,47,43,93,67,41,30.21,30.14,30.09,10,10,7,13,3,20,0.10,3,Rain,165
2013-6-7,55,53,51,55,50,47,100,89,77,30.10,30.04,29.90,10,6,1,12,2,14,1.20,8,Rain,66
2013-6-8,69,60,51,58,54,50,100,81,61,30.04,29.85,29.74,10,9,3,17,5,26,0.16,7,Rain,291
2013-6-9,76,64,52,57,53,47,100,68,36,30.20,30.10,30.04,10,7,0,12,5,24,0.00,3,Fog,266
2013-6-10,70,59,48,61,54,48,100,81,61,30.24,30.16,30.01,10,7,0,9,1,14,0.28,5,Fog-Rain,152
2013-6-11,59,57,54,56,55,52,100,93,86,29.99,29.74,29.60,10,4,2,9,2,13,0.85,8,Rain,50
2013-6-12,69,60,50,55,51,47,93,69,45,29.86,29.70,29.60,10,9,2,16,6,35,0.02,7,Rain,336
2013-6-13,61,55,48,56,51,48,100,90,80,29.85,29.80,29.74,10,5,0,10,1,13,0.34,6,Fog-Rain,188
2013-6-14,77,65,52,56,51,42,100,65,29,29.84,29.74,29.71,10,10,6,13,3,18,0.00,4,,24
2013-6-15,76,61,46,51,44,37,93,61,29,29.96,29.92,29.84,10,10,10,20,4,26,0.00,0,,310
2013-6-16,73,60,46,61,54,46,100,77,53,29.96,29.84,29.72,10,10,7,12,2,17,0.01,5,Rain,154
2013-6-17,79,66,53,63,57,52,100,72,43,29.92,29.86,29.80,10,8,1,26,2,35,0.40,5,Rain-Thunderstorm,266
2013-6-18,62,58,53,61,56,53,100,90,80,30.01,29.95,29.92,10,5,0,8,1,14,0.17,7,Fog-Rain,41
2013-6-19,71,59,46,54,46,38,100,67,34,30.21,30.04,29.98,10,5,0,15,4,20,0.00,4,Fog,341
2013-6-20,79,60,40,51,43,30,100,59,17,30.30,30.24,30.20,10,7,0,14,2,20,0.00,2,Fog,215
2013-6-21,82,65,48,55,50,47,100,64,28,30.27,30.24,30.22,10,10,10,12,2,16,0.00,0,,237
2013-6-22,83,67,51,66,58,51,100,73,46,30.24,30.18,30.09,10,9,2,14,2,20,0.02,3,Rain,227
2013-6-23,91,77,63,70,65,62,100,72,44,30.14,30.08,29.97,10,6,0,24,3,35,0.16,4,Fog-Rain-Thunderstorm,271
2013-6-24,89,77,64,70,66,64,100,74,47,30.03,29.99,29.94,10,5,0,15,3,21,0.03,4,Fog-Rain-Thunderstorm,270
2013-6-25,89,76,63,68,65,63,100,72,43,29.96,29.86,29.76,10,6,2,20,3,29,0.10,4,Rain-Thunderstorm,213
2013-6-26,73,69,64,70,66,64,100,92,84,29.86,29.81,29.76,10,4,0,7,0,12,0.35,7,Fog-Rain,93
2013-6-27,81,72,62,69,65,62,100,79,58,29.86,29.81,29.73,10,6,0,9,2,14,T,7,Fog,121
2013-6-28,80,69,58,70,62,57,100,84,67,29.73,29.56,29.46,10,6,1,14,3,22,1.63,8,Rain-Thunderstorm,31
2013-6-29,83,73,63,68,65,59,100,75,49,29.70,29.56,29.50,10,7,0,15,4,22,0.01,6,Fog-Rain,182
2013-6-30,83,72,61,70,65,61,100,79,58,29.94,29.82,29.71,10,7,0,14,2,16,0.03,4,Fog-Rain-Thunderstorm,148